Houghton, MI

8:44 PM EDT on June 24, 2018 (GMT -0400)
Houghton County Memorial

Weather History for KCMX - August, 2017

Change the Weather History Date:

Sunday, August 13, 2017

  Actual Average Record
Temperature  
Mean Temperature 66 °F -  
Max Temperature 78 °F 73 °F 88 °F (1970)
Min Temperature 55 °F 55 °F 40 °F (1992)
Cooling Degree Days 1    
Growing Degree Days 16 (Base 50)    
Moisture  
Dew Point 51 °F    
Average Humidity 60    
Maximum Humidity 75    
Minimum Humidity 37    
Precipitation  
Precipitation 0.00 in - - ()
Sea Level Pressure  
Sea Level Pressure 29.98 in    
Wind  
Wind Speed 10 mph (WNW)    
Max Wind Speed 15 mph    
Max Gust Speed -    
Visibility 10 miles    
Events      
Averages and records for this station are not official NWS values.
T = Trace of Precipitation, MM = Missing Value Source: NWS Daily Summary

Daily Weather History Graph

Daily Weather History Graph

Search for Another Location

Airport or City:

Astronomy

Aug. 13, 2017 Rise Set
Actual Time 6:48 AM EDT 9:08 PM EDT
Civil Twilight 6:14 AM EDT 9:41 PM EDT
Nautical Twilight 5:32 AM EDT 10:23 PM EDT
Astronomical Twilight 4:44 AM EDT 11:11 PM EDT
Moon No Moon Rise 1:11 PM EDT (8/13)
Length of Visible Light 15h 26m
Length of Day
14h 19m
Waning Gibbous, 65% of the Moon is Illuminated
Aug 13
Waning Gibbous
Aug 14
Last Quarter
Aug 21
New
Aug 29
First Quarter
Sep 6
Full

Hourly Weather History & Observations

Time (EDT) Temp. Dew Point Humidity Pressure Visibility Wind Dir Wind Speed Gust Speed Precip Events Conditions
12:53 AM 59.0 °F 50.0 °F 72% 30.01 in 10.0 mi NW 8.1 mph - N/A   Clear
1:53 AM 57.0 °F 48.9 °F 74% 30.02 in 10.0 mi WNW 8.1 mph - N/A   Clear
2:53 AM 55.9 °F 48.0 °F 75% 30.01 in 10.0 mi NW 8.1 mph - N/A   Clear
3:53 AM 55.9 °F 46.9 °F 72% 30.00 in 10.0 mi WNW 6.9 mph - N/A   Clear
4:53 AM 57.0 °F 46.9 °F 69% 30.01 in 10.0 mi WNW 6.9 mph - N/A   Clear
5:53 AM 57.0 °F 48.0 °F 72% 30.01 in 10.0 mi NW 9.2 mph - N/A   Clear
6:53 AM 60.1 °F 48.9 °F 67% 30.00 in 10.0 mi WNW 10.4 mph - N/A   Clear
7:53 AM 61.0 °F 51.1 °F 70% 30.00 in 10.0 mi NW 8.1 mph - N/A   Clear
8:53 AM 64.9 °F 54.0 °F 68% 30.00 in 10.0 mi WNW 9.2 mph - N/A   Clear
9:53 AM 68.0 °F 55.9 °F 65% 30.01 in 10.0 mi West 11.5 mph - N/A   Clear
10:53 AM 69.1 °F 55.9 °F 63% 30.01 in 10.0 mi West 11.5 mph - N/A   Clear
11:53 AM 73.0 °F 57.0 °F 57% 30.01 in 10.0 mi WNW 11.5 mph - N/A   Clear
12:53 PM 73.9 °F 55.9 °F 53% 30.00 in 10.0 mi West 11.5 mph - N/A   Clear
1:53 PM 75.9 °F 55.9 °F 50% 29.99 in 10.0 mi West 9.2 mph - N/A   Clear
2:53 PM 77.0 °F 53.1 °F 43% 29.99 in 10.0 mi West 15.0 mph - N/A   Clear
3:53 PM 77.0 °F 51.1 °F 40% 29.98 in 10.0 mi West 13.8 mph - N/A   Clear
4:53 PM 75.0 °F 50.0 °F 41% 29.97 in 10.0 mi West 15.0 mph - N/A   Clear
5:53 PM 77.0 °F 48.9 °F 37% 29.96 in 10.0 mi WNW 12.7 mph - N/A   Clear
6:53 PM 73.0 °F 48.9 °F 42% 29.95 in 10.0 mi WNW 11.5 mph - N/A   Partly Cloudy
7:53 PM 71.1 °F 50.0 °F 47% 29.94 in 10.0 mi WNW 11.5 mph - N/A   Clear
8:53 PM 66.9 °F 51.1 °F 57% 29.94 in 10.0 mi WNW 13.8 mph - N/A   Clear
9:53 PM 63.0 °F 51.1 °F 65% 29.95 in 10.0 mi NW 10.4 mph - N/A   Clear
10:53 PM 62.1 °F 50.0 °F 65% 29.95 in 10.0 mi NW 10.4 mph - N/A   Clear
11:53 PM 60.1 °F 48.9 °F 67% 29.93 in 10.0 mi NW 9.2 mph - N/A   Partly Cloudy